Precipitable_Water
1.33 1.34 1.31 1.31 1.33 1.37 1.36 1.34 1.38 1.34 1.33 1.36 1.37 1.38 1.38 1.37 1.38 1.35 1.32 1.29 1.26 1.26 1.26 1.28 1.29 1.27 1.26 1.23 1.22 1.17 1.13 1.09 1.09 1.09 1.06 1.02 1.01 0.99 0.98 0.97 0.97 1.00
1.32 1.35 1.35 1.36 1.38 1.43 1.42 1.41 1.41 1.34 1.34 1.35 1.36 1.38 1.40 1.40 1.38 1.35 1.32 1.29 1.30 1.28 1.30 1.31 1.34 1.34 1.35 1.34 1.32 1.23 1.18 1.14 1.09 1.12 1.06 1.02 1.01 1.00 1.01 1.03 1.03 1.08
1.33 1.34 1.35 1.33 1.36 1.41 1.42 1.42 1.42 1.38 1.38 1.39 1.38 1.34 1.35 1.38 1.39 1.39 1.36 1.33 1.35 1.36 1.35 1.37 1.39 1.40 1.42 1.42 1.40 1.33 1.23 1.17 1.12 1.14 1.12 1.11 1.12 1.09 1.09 1.08 1.10 1.10
1.34 1.35 1.36 1.36 1.39 1.41 1.41 1.40 1.41 1.41 1.42 1.43 1.38 1.35 1.38 1.40 1.40 1.37 1.33 1.33 1.37 1.36 1.37 1.37 1.38 1.42 1.42 1.43 1.41 1.35 1.31 1.24 1.22 1.20 1.16 1.18 1.16 1.12 1.11 1.11 1.09 1.08
1.35 1.37 1.40 1.40 1.42 1.44 1.41 1.36 1.36 1.39 1.39 1.44 1.43 1.40 1.40 1.41 1.38 1.37 1.36 1.39 1.38 1.36 1.36 1.36 1.40 1.42 1.44 1.41 1.39 1.36 1.35 1.28 1.24 1.20 1.17 1.14 1.16 1.14 1.17 1.16 1.12 1.08
1.40 1.40 1.40 1.40 1.42 1.42 1.39 1.35 1.38 1.43 1.43 1.43 1.40 1.37 1.38 1.42 1.40 1.37 1.36 1.36 1.36 1.34 1.39 1.42 1.43 1.45 1.42 1.38 1.39 1.35 1.37 1.27 1.22 1.19 1.17 1.14 1.13 1.16 1.17 1.17 1.14 1.10
1.38 1.39 1.38 1.41 1.41 1.41 1.37 1.38 1.45 1.47 1.39 1.41 1.41 1.33 1.32 1.36 1.36 1.39 1.37 1.35 1.36 1.38 1.45 1.44 1.42 1.41 1.38 1.41 1.36 1.34 1.32 1.27 1.22 1.19 1.17 1.18 1.16 1.15 1.19 1.18 1.16 1.12
1.41 1.41 1.40 1.40 1.39 1.38 1.39 1.46 1.46 1.42 1.41 1.42 1.40 1.40 1.38 1.35 1.32 1.35 1.33 1.29 1.29 1.33 1.36 1.38 1.40 1.40 1.36 1.35 1.34 1.35 1.32 1.29 1.21 1.17 1.16 1.16 1.20 1.17 1.16 1.16 1.15 1.15
1.54 1.50 1.46 1.43 1.39 1.39 1.37 1.42 1.44 1.44 1.46 1.41 1.43 1.43 1.38 1.35 1.32 1.34 1.31 1.27 1.25 1.32 1.31 1.30 1.34 1.37 1.42 1.38 1.37 1.37 1.30 1.27 1.24 1.19 1.19 1.21 1.20 1.18 1.16 1.19 1.17 1.15
1.59 1.58 1.52 1.46 1.39 1.40 1.38 1.39 1.40 1.40 1.43 1.39 1.41 1.42 1.34 1.30 1.27 1.26 1.26 1.26 1.23 1.31 1.32 1.23 1.27 1.31 1.34 1.37 1.41 1.38 1.32 1.26 1.23 1.22 1.22 1.22 1.19 1.17 1.17 1.16 1.14 1.12
1.59 1.59 1.54 1.49 1.43 1.38 1.32 1.38 1.38 1.37 1.39 1.37 1.39 1.40 1.35 1.25 1.20 1.25 1.25 1.24 1.22 1.25 1.25 1.23 1.22 1.24 1.26 1.36 1.44 1.44 1.37 1.26 1.20 1.19 1.21 1.23 1.22 1.19 1.18 1.17 1.16 1.14
1.55 1.57 1.56 1.54 1.51 1.47 1.44 1.41 1.42 1.38 1.36 1.37 1.42 1.41 1.37 1.28 1.16 1.15 1.18 1.16 1.21 1.29 1.32 1.28 1.24 1.24 1.28 1.37 1.45 1.46 1.40 1.30 1.24 1.23 1.24 1.23 1.22 1.22 1.23 1.25 1.21 1.17
1.55 1.55 1.56 1.59 1.62 1.61 1.58 1.50 1.42 1.39 1.36 1.32 1.39 1.39 1.32 1.23 1.16 1.12 1.15 1.13 1.21 1.33 1.38 1.34 1.26 1.27 1.32 1.40 1.47 1.47 1.39 1.32 1.29 1.29 1.25 1.23 1.22 1.22 1.25 1.27 1.25 1.22
1.60 1.64 1.65 1.67 1.71 1.71 1.67 1.63 1.56 1.44 1.34 1.39 1.42 1.39 1.33 1.29 1.22 1.15 1.13 1.15 1.20 1.24 1.28 1.31 1.31 1.32 1.35 1.41 1.47 1.45 1.40 1.35 1.33 1.30 1.27 1.24 1.21 1.24 1.25 1.24 1.22 1.24
1.65 1.69 1.73 1.74 1.75 1.71 1.68 1.67 1.68 1.70 1.62 1.44 1.42 1.42 1.39 1.36 1.30 1.19 1.13 1.17 1.22 1.22 1.23 1.25 1.27 1.29 1.33 1.38 1.41 1.39 1.38 1.35 1.34 1.31 1.23 1.19 1.21 1.24 1.27 1.26 1.24 1.23
1.64 1.64 1.66 1.70 1.72 1.69 1.71 1.74 1.78 1.78 1.78 1.63 1.46 1.38 1.36 1.32 1.28 1.23 1.20 1.26 1.26 1.24 1.20 1.22 1.26 1.31 1.34 1.39 1.44 1.41 1.41 1.36 1.26 1.26 1.25 1.23 1.21 1.21 1.22 1.25 1.27 1.28
1.60 1.62 1.68 1.68 1.71 1.72 1.73 1.76 1.78 1.78 1.75 1.67 1.57 1.43 1.34 1.34 1.34 1.33 1.35 1.37 1.30 1.20 1.18 1.23 1.29 1.34 1.40 1.40 1.40 1.37 1.34 1.33 1.31 1.30 1.30 1.26 1.21 1.19 1.20 1.23 1.27 1.32
1.60 1.62 1.62 1.65 1.69 1.68 1.68 1.72 1.72 1.71 1.69 1.63 1.62 1.56 1.47 1.44 1.43 1.47 1.46 1.39 1.27 1.21 1.22 1.27 1.34 1.38 1.43 1.42 1.37 1.32 1.31 1.30 1.29 1.28 1.27 1.24 1.22 1.21 1.23 1.26 1.28 1.32
1.57 1.56 1.56 1.59 1.59 1.57 1.58 1.58 1.57 1.56 1.55 1.53 1.44 1.40 1.43 1.39 1.39 1.49 1.46 1.36 1.28 1.27 1.30 1.36 1.41 1.44 1.46 1.41 1.35 1.33 1.29 1.29 1.28 1.27 1.23 1.21 1.24 1.28 1.30 1.33 1.37 1.40
1.39 1.35 1.34 1.36 1.38 1.39 1.41 1.41 1.43 1.44 1.48 1.50 1.50 1.49 1.40 1.35 1.41 1.45 1.46 1.35 1.29 1.31 1.34 1.38 1.44 1.55 1.52 1.43 1.36 1.30 1.27 1.28 1.28 1.25 1.20 1.21 1.28 1.35 1.40 1.43 1.45 1.44
1.28 1.29 1.33 1.37 1.37 1.38 1.39 1.41 1.43 1.45 1.47 1.49 1.50 1.49 1.43 1.39 1.47 1.48 1.45 1.42 1.37 1.35 1.35 1.37 1.45 1.58 1.52 1.41 1.32 1.25 1.25 1.29 1.29 1.24 1.22 1.24 1.31 1.38 1.43 1.45 1.46 1.47
1.29 1.31 1.36 1.39 1.38 1.38 1.38 1.39 1.43 1.43 1.43 1.48 1.49 1.48 1.48 1.49 1.54 1.55 1.51 1.46 1.40 1.37 1.36 1.39 1.48 1.51 1.45 1.39 1.30 1.22 1.21 1.27 1.28 1.23 1.23 1.27 1.32 1.41 1.45 1.47 1.51 1.56
1.33 1.34 1.36 1.38 1.38 1.37 1.36 1.39 1.40 1.42 1.44 1.50 1.45 1.42 1.41 1.44 1.51 1.52 1.49 1.44 1.44 1.43 1.44 1.49 1.50 1.52 1.46 1.35 1.25 1.19 1.19 1.24 1.26 1.24 1.25 1.30 1.35 1.42 1.47 1.49 1.49 1.53
1.34 1.36 1.36 1.39 1.40 1.38 1.38 1.42 1.44 1.44 1.42 1.47 1.42 1.40 1.39 1.45 1.51 1.49 1.45 1.47 1.48 1.51 1.54 1.50 1.49 1.47 1.41 1.33 1.23 1.17 1.17 1.19 1.24 1.26 1.31 1.35 1.40 1.41 1.42 1.44 1.44 1.43
1.34 1.35 1.37 1.39 1.40 1.42 1.43 1.41 1.42 1.41 1.42 1.43 1.42 1.41 1.41 1.47 1.48 1.45 1.46 1.50 1.54 1.53 1.52 1.49 1.47 1.44 1.43 1.41 1.29 1.18 1.14 1.20 1.27 1.30 1.32 1.40 1.41 1.43 1.49 1.46 1.45 1.45
1.33 1.34 1.38 1.41 1.43 1.45 1.45 1.44 1.43 1.42 1.39 1.38 1.38 1.37 1.38 1.43 1.46 1.47 1.46 1.50 1.53 1.52 1.49 1.46 1.41 1.41 1.47 1.43 1.32 1.20 1.18 1.23 1.30 1.29 1.30 1.31 1.33 1.34 1.34 1.40 1.40 1.38
Wind_Speed
16 16 15 15 15 14 14 13 13 13 13 13 13 13 13 13 13 13 14 14 14 14 14 14 15 15 15 15 14 14 14 14 13 13 14 14 14 14 14 14 14 14
17 17 16 16 15 15 15 14 14 13 13 13 13 14 14 14 14 14 15 15 15 15 15 15 15 15 15 15 15 15 15 15 14 14 14 14 14 14 14 15 15 15
18 18 17 17 16 16 16 15 15 15 15 15 15 15 15 15 15 15 16 15 15 16 16 16 16 15 16 16 16 16 15 15 15 15 15 15 14 14 15 15 15 16
19 19 18 18 18 17 17 17 17 16 16 16 16 16 16 16 16 16 16 16 17 17 16 16 17 17 17 17 17 17 16 16 16 16 16 15 15 15 15 16 16 16
20 19 19 19 19 18 18 18 18 18 18 18 17 17 16 16 17 17 17 17 17 17 17 17 18 19 19 18 17 18 17 16 16 15 15 15 15 15 15 16 16 17
20 20 20 20 20 19 20 20 19 19 19 18 18 18 18 18 18 18 18 18 18 18 18 19 20 20 19 18 19 18 16 15 15 15 15 15 15 16 16 16 17 17
20 20 21 21 21 21 21 21 20 20 20 19 19 19 19 19 19 19 20 20 20 20 20 20 20 20 19 19 20 18 16 16 16 16 16 16 16 17 17 17 18 18
20 20 21 21 22 22 22 22 22 21 21 21 20 20 20 20 20 21 21 21 22 22 21 20 19 19 18 19 19 19 18 18 18 18 18 17 18 18 18 18 19 19
20 20 21 22 22 23 23 23 23 23 23 23 22 22 21 21 22 22 22 22 23 22 20 19 18 17 17 18 19 19 19 19 18 18 19 19 19 19 19 19 19 20
21 21 21 22 23 23 23 24 24 24 24 24 24 23 23 23 23 24 23 23 23 22 20 19 18 18 17 18 20 20 20 19 19 19 20 20 20 20 20 20 20 20
21 21 22 22 23 23 24 25 25 25 25 25 25 24 24 25 25 25 25 25 24 24 22 21 20 19 19 19 20 20 20 19 19 19 20 21 21 21 22 21 21 21
21 22 22 23 23 23 24 25 25 26 26 26 25 25 25 25 26 26 26 26 26 26 26 24 22 22 21 21 20 21 21 20 20 20 20 21 22 22 22 22 22 21
21 22 22 23 23 24 24 25 26 27 26 26 25 26 26 27 27 27 27 27 26 25 25 25 24 23 23 22 21 22 22 21 20 20 21 21 22 22 22 22 21 21
22 22 22 23 23 24 24 25 26 27 27 26 27 28 28 28 29 29 28 27 26 24 23 25 25 24 23 23 22 22 22 21 21 21 21 22 22 22 21 21 20 21
22 22 23 23 23 24 25 25 25 26 26 27 29 30 29 29 30 30 29 28 27 26 25 26 26 25 24 23 22 21 21 21 21 21 22 22 22 21 21 20 21 21
23 23 23 23 23 24 25 25 25 26 26 27 30 30 29 29 30 29 29 27 26 27 27 26 26 26 25 24 22 21 21 22 21 21 22 22 22 22 21 21 22 22
22 22 23 24 24 25 26 27 27 27 27 28 29 29 29 29 28 27 26 25 25 27 27 27 27 26 25 25 23 22 22 22 22 21 22 22 22 22 22 22 23 23
22 22 23 24 25 26 27 28 28 28 29 29 29 29 29 28 28 27 26 25 26 26 26 27 27 27 26 25 24 23 23 23 22 22 22 22 22 22 23 23 24 24
22 23 23 24 25 26 27 28 28 29 29 29 28 29 29 28 27 26 26 26 25 25 25 26 26 26 26 25 24 24 23 23 23 22 21 22 22 22 23 24 24 24
21 23 23 23 24 25 26 27 28 28 29 29 28 28 28 27 26 25 25 25 25 24 25 25 25 26 25 24 24 24 24 23 23 22 22 22 22 23 23 24 25 26
20 22 22 22 23 25 26 27 28 28 28 28 27 28 27 26 24 24 24 24 24 24 24 25 25 26 25 24 24 24 24 24 23 23 23 23 23 24 24 25 26 27
20 21 21 22 23 25 25 27 28 27 26 26 26 27 26 25 24 24 23 23 23 23 23 24 25 25 24 24 24 24 24 24 23 24 24 24 25 25 26 26 27 27
20 21 22 23 23 24 25 27 27 26 26 25 25 25 25 25 25 25 24 23 23 23 24 25 25 24 23 23 24 24 24 24 24 24 25 25 26 26 26 27 28 28
21 22 22 23 23 24 25 26 26 25 25 25 24 24 24 25 25 25 25 24 24 25 25 25 24 23 22 23 23 23 24 25 25 25 25 26 26 26 27 28 29 29
22 23 23 23 23 24 24 25 25 24 24 24 23 23 23 24 24 24 24 24 24 25 24 23 23 22 22 23 23 23 25 25 25 25 26 26 26 27 28 29 30 31
23 24 24 24 23 24 24 24 23 23 22 23 23 22 22 22 22 23 23 23 23 22 22 22 22 23 23 23 23 23 25 26 26 26 26 26 27 28 29 30 31 32
Wind_Direction
237 239 242 244 246 249 251 252 255 258 261 264 267 271 273 274 276 278 281 285 288 289 287 284 282 282 284 286 289 290 289 286 286 286 287 287 287 287 286 286 285 284
237 239 241 244 247 249 250 252 255 258 262 265 268 271 273 275 276 278 281 284 287 289 288 286 284 283 285 286 287 288 288 286 283 284 286 286 286 286 285 285 283 283
238 239 242 245 247 249 250 252 256 260 263 267 269 271 273 274 275 278 281 285 288 289 288 285 284 285 286 286 285 285 286 286 282 280 283 284 285 285 285 284 283 282
239 241 243 246 248 249 251 254 258 261 264 267 269 270 272 274 275 278 281 284 289 290 287 284 282 283 286 286 285 284 284 284 282 279 280 282 283 285 285 285 284 284
240 243 245 247 249 251 253 255 259 261 263 266 268 269 270 273 275 278 281 285 288 290 288 285 283 282 282 283 284 284 283 283 282 281 280 281 284 286 287 286 285 285
242 244 246 248 251 252 254 257 260 262 263 265 268 269 270 272 274 276 279 284 287 288 289 289 286 282 280 281 283 282 280 280 282 282 282 283 285 287 286 286 285 285
243 245 247 250 252 253 255 257 259 262 264 266 268 268 270 272 273 275 278 282 285 288 290 291 289 283 280 282 279 274 274 278 280 282 283 284 286 286 286 286 285 285
244 247 249 252 253 255 257 259 260 262 264 265 266 267 269 270 272 275 278 280 284 287 288 289 289 285 281 280 274 268 271 277 279 281 283 283 285 286 285 285 285 285
246 249 252 253 255 257 259 260 261 262 263 264 266 267 268 269 272 275 277 278 281 283 284 284 285 286 284 281 276 272 273 276 276 279 281 283 284 285 284 284 284 285
249 252 254 256 258 260 260 260 262 263 263 264 266 267 267 268 272 274 275 277 278 277 277 279 281 283 285 282 279 276 274 274 275 277 280 282 284 285 284 284 284 285
250 253 255 257 260 262 262 261 262 264 264 264 265 266 267 269 271 273 274 276 275 272 271 275 279 281 283 283 279 275 273 273 274 276 278 280 283 284 283 283 283 284
251 254 257 259 261 264 264 263 262 264 264 264 264 266 267 269 271 272 274 275 275 272 269 271 276 280 282 283 279 274 272 271 272 274 275 278 281 282 282 282 282 281
253 256 258 260 262 264 265 265 264 264 264 264 265 266 268 270 271 271 273 274 273 272 270 271 274 277 280 282 279 273 270 269 271 273 275 278 280 281 281 281 280 280
256 259 261 262 264 265 266 267 266 265 265 265 266 268 269 271 271 270 271 270 268 269 272 272 273 275 278 281 277 271 268 268 270 272 275 278 279 279 278 278 279 281
260 262 264 264 265 266 268 268 268 267 268 269 269 270 271 271 270 270 269 266 264 267 271 272 272 273 276 279 274 268 267 268 269 271 274 277 278 276 276 277 279 282
264 265 266 266 267 268 270 270 270 270 272 272 270 270 271 271 270 270 268 263 261 267 271 270 271 272 274 275 271 267 268 269 269 271 273 274 274 274 275 278 281 284
266 267 268 268 269 271 272 273 273 272 273 273 271 269 270 270 270 268 265 260 261 268 269 269 270 272 274 273 267 266 269 269 268 270 271 272 272 273 276 280 283 285
268 270 271 271 272 273 275 275 275 274 273 273 272 270 268 268 268 267 262 259 262 267 269 269 270 272 274 271 265 264 267 266 266 268 269 271 272 273 277 280 283 285
269 272 273 273 274 275 276 277 276 275 273 273 273 271 268 266 267 266 261 259 262 265 268 269 270 271 272 268 263 263 263 263 264 265 266 270 273 275 279 281 283 285
270 273 275 275 276 278 278 278 278 276 275 274 274 271 268 266 265 264 260 260 261 264 266 268 269 270 268 264 262 262 261 261 262 262 264 271 275 278 280 282 284 286
272 275 278 279 279 279 279 280 279 278 277 275 274 271 268 265 263 262 261 261 261 263 266 267 268 267 264 260 260 260 259 259 260 260 266 273 277 278 280 283 286 287
276 279 281 283 282 281 281 281 281 280 278 276 274 272 269 265 262 261 261 261 261 263 267 267 266 264 260 258 260 259 257 258 260 263 268 274 277 278 281 285 288 288
279 282 285 286 285 284 283 283 282 280 277 275 274 272 269 266 263 262 260 260 261 264 266 266 265 261 257 258 260 258 256 258 262 266 271 274 276 279 282 286 289 290
281 284 287 288 288 287 286 285 282 278 277 277 276 273 269 267 264 262 261 262 263 264 264 263 261 258 256 259 261 258 256 260 265 269 272 274 276 280 283 286 288 290
282 286 288 289 289 288 287 284 280 278 278 278 277 274 270 267 265 263 262 264 266 265 262 259 257 256 256 259 261 259 258 262 267 271 273 276 279 282 285 287 289 291
284 287 289 289 289 288 286 283 280 279 278 278 277 274 270 267 265 263 264 266 267 265 261 258 256 258 260 261 262 261 261 265 269 272 274 277 281 284 286 288 290 291